Home > Weather > Mexico City > Past weeks

Flag for Mexico Past Weather in Mexico City, Federal District, Mexico — Yesterday and Last 2 Weeks

Now
66 °F

Thunderstorms. Mostly cloudy.


Feels Like: 66 °F
Forecast: 58 / 77 °F
Wind: 18 mph from East

Location: Mexico City / Licenci

Current Time: May 31, 2016 at 8:47:31 PM

Latest Report: May 31, 2016 at 7:48 PM


Visibility: 6 mi

Pressure: 30.21 "Hg (23.24 "Hg at 2241m altitude)

Humidity: 52%

Dew Point: 48 °F

Location of Mexico CityLocation

Past Weather in Mexico City — Graph

°F

Mexico City Temperature Yesterday

Maximum temperature yesterday: 79 °F (at 3:47 PM)
Minimum temperature yesterday: 59 °F (at 7:26 AM)
Average temperature yesterday: 66 °F

High & Low Weather Summary for the Past Weeks

 TemperatureHumidityPressure
High84 °F (May 20, 4:45 PM)94% (May 21, 7:53 AM)30.47 "Hg (May 21, 7:53 AM)
Low57 °F (May 18, 7:25 AM)14% (May 20, 4:45 PM)29.58 "Hg (May 19, 6:50 PM)
Average67 °F59%30.16 "Hg
* Reported May 16 7:46 PM — May 31 7:48 PM, Mexico City, Weather by CustomWeather, © 2016

Note: Actual official high and low records may vary slightly from our data, if they occured in-between our weather recording intervals... More about our weather records

Advertising

Mexico City Weather History for the Previous 24 Hours

Scroll right to see more
 ConditionsComfort  
Time TempWeatherWind HumidityBarometerVisibility
7:48 PM
Tue, May 31
66 °FThunderstorms. Mostly cloudy.18 mph52%30.21 "Hg6 mi
6:48 PM75 °FCloudy.15 mph44%29.61 "Hg6 mi
5:47 PM77 °FBroken clouds.9 mph36%30.15 "Hg6 mi
3:45 PM79 °FBroken clouds.7 mph21%29.65 "Hg5 mi
2:49 PM79 °FBroken clouds.12 mph34%30.22 "Hg5 mi
1:46 PM75 °FScattered clouds.6 mph44%30.25 "Hg6 mi
12:46 PM73 °FScattered clouds.No wind44%29.76 "Hg6 mi
10:47 AM68 °FPassing clouds.No wind53%30.31 "Hg6 mi
10:21 AM66 °FScattered clouds.8 mph60%30.32 "Hg6 mi
9:21 AM64 °FPartly sunny.5 mph60%30.34 "Hg7 mi
8:57 AM64 °FBroken clouds.No wind56%30.34 "Hg8 mi
8:21 AM64 °FBroken clouds.No wind60%30.32 "Hg8 mi
7:21 AM59 °FPassing clouds.5 mph72%30.30 "Hg7 mi
6:45 AM59 °FPassing clouds.5 mph72%29.77 "Hg7 mi
5:45 AM59 °FPassing clouds.6 mph72%30.29 "Hg7 mi
3:46 AM59 °FPassing clouds.No wind82%29.71 "Hg7 mi
2:45 AM61 °FPassing clouds.6 mph72%30.31 "Hg7 mi
10:45 PM
Mon, May 30
61 °FPassing clouds.3 mph77%30.32 "Hg7 mi
9:47 PM63 °FPassing clouds.3 mph73%29.80 "Hg7 mi
Weather by CustomWeather, © 2016

See weather overviewHow to use our weather pages